Paynesville, MN

11:24 PM CST on February 21, 2017 (GMT -0600)
Paynesville

Weather History for KPEX - February, 2014

Change the Weather History Date:

Thursday, February 13, 2014

  Actual Average (KLJF) Record (KLJF)
Temperature  
Mean Temperature 14 °F -  
Max Temperature 29 °F 27 °F 47 °F (1990)
Min Temperature 0 °F 8 °F -18 °F (1951)
Degree Days  
Heating Degree Days 50    
Moisture  
Dew Point 8 °F    
Average Humidity 81    
Maximum Humidity 91    
Minimum Humidity 72    
Precipitation  
Precipitation 0.00 in - - ()
Sea Level Pressure  
Sea Level Pressure 29.59 in    
Wind  
Wind Speed 17 mph (West)    
Max Wind Speed 31 mph    
Max Gust Speed 40 mph    
Visibility 6 miles    
Events Snow    
Averages and records for this station are not official NWS values.
T = Trace of Precipitation, MM = Missing Value Source: NWS Daily Summary

Daily Weather History Graph

Daily Weather History Graph

Search for Another Location

Airport or City:

Trip Planner

Search our weather history database for the weather conditions in past years. The results will help you decide how hot, cold, wet, or windy it might be!

Date:

Astronomy

Feb. 13, 2014 Rise Set
Actual Time 7:23 AM CST 5:43 PM CST
Civil Twilight 6:52 AM CST 6:14 PM CST
Nautical Twilight 6:18 AM CST 6:48 PM CST
Astronomical Twilight 5:44 AM CST 7:23 PM CST
Moon 4:52 PM CST (2/13) 6:17 AM CST (2/13)
Length of Visible Light 11h 21m
Length of Day
10h 20m
Waxing Gibbous, 99% of the Moon is Illuminated
Feb 13
Waxing Gibbous
Feb 14
Full
Feb 22
Last Quarter
Mar 1
New
Mar 8
First Quarter

Hourly Weather History & Observations

Time (CST) Temp. Windchill Dew Point Humidity Pressure Visibility Wind Dir Wind Speed Gust Speed Precip Events Conditions
12:12 AM 15.8 °F -0.2 °F 13.6 °F 91% 29.66 in 3.0 mi SSE 17.3 mph 21.9 mph N/A   Overcast
12:32 AM 16.2 °F 0.3 °F 13.8 °F 90% 29.63 in 2.5 mi SSE 17.3 mph 27.6 mph N/A Snow Light Snow
12:52 AM 16.5 °F 0.8 °F 14.0 °F 90% 29.60 in 3.0 mi SE 17.3 mph 25.3 mph N/A   Overcast
1:12 AM 16.7 °F -0.3 °F 14.2 °F 90% 29.58 in 2.5 mi SSE 20.7 mph 28.8 mph N/A   Overcast
1:32 AM 17.4 °F 1.0 °F 14.9 °F 90% 29.56 in 2.5 mi SSE 19.6 mph 24.2 mph N/A Snow Light Snow
1:52 AM 18.1 °F 2.4 °F 15.8 °F 91% 29.54 in 0.5 mi SSE 18.4 mph 26.5 mph N/A Snow Snow
2:12 AM 18.3 °F 3.6 °F 15.8 °F 90% 29.52 in 1.0 mi SSE 16.1 mph 24.2 mph N/A Snow Light Snow
2:32 AM 19.2 °F 4.7 °F 16.9 °F 91% 29.50 in 1.2 mi SSE 16.1 mph 21.9 mph N/A Snow Light Snow
2:52 AM 20.3 °F 5.7 °F 18.0 °F 91% 29.49 in 4.0 mi South 17.3 mph 24.2 mph N/A   Overcast
3:12 AM 20.7 °F 6.6 °F 17.6 °F 88% 29.46 in 2.5 mi SSE 16.1 mph 29.9 mph N/A   Overcast
3:32 AM 20.3 °F 6.1 °F 17.8 °F 90% 29.45 in 3.0 mi SSE 16.1 mph 24.2 mph N/A   Overcast
3:52 AM 21.0 °F 7.6 °F 18.3 °F 89% 29.44 in 4.0 mi South 15.0 mph 21.9 mph N/A   Overcast
4:12 AM 21.7 °F 10.8 °F 19.0 °F 89% 29.43 in 4.0 mi South 10.4 mph 17.3 mph N/A   Overcast
4:32 AM 23.4 °F 13.5 °F 20.1 °F 87% 29.43 in 7.0 mi South 9.2 mph 20.7 mph N/A   Overcast
4:52 AM 23.0 °F 11.7 °F 19.9 °F 88% 29.42 in 7.0 mi South 11.5 mph - N/A   Mostly Cloudy
5:12 AM 23.7 °F 13.3 °F 20.3 °F 87% 29.41 in 7.0 mi South 10.4 mph 17.3 mph N/A   Scattered Clouds
5:32 AM 24.1 °F 13.7 °F 20.7 °F 87% 29.39 in 7.0 mi South 10.4 mph - N/A   Overcast
5:52 AM 25.5 °F 15.5 °F 21.4 °F 84% 29.38 in 7.0 mi South 10.4 mph - N/A   Overcast
6:12 AM 26.2 °F 17.1 °F 21.9 °F 84% 29.37 in 10.0 mi SSW 9.2 mph - N/A   Overcast
6:33 AM 27.0 °F 16.1 °F 22.5 °F 83% 29.38 in 10.0 mi SSW 12.7 mph 18.4 mph N/A   Overcast
6:51 AM 28.4 °F 17.0 °F 23.4 °F 81% 29.38 in 10.0 mi WSW 15.0 mph 20.7 mph N/A   Overcast
7:12 AM 29.5 °F 16.5 °F 24.6 °F 82% 29.38 in 10.0 mi West 20.7 mph 28.8 mph N/A   Overcast
7:32 AM 28.8 °F 13.7 °F 23.9 °F 82% 29.40 in 1.5 mi West 27.6 mph 35.7 mph N/A Snow Light Snow
7:52 AM 23.2 °F 6.5 °F 18.5 °F 82% 29.42 in 0.8 mi West 26.5 mph 38.0 mph N/A Snow Light Snow
8:12 AM 20.8 °F 2.2 °F 16.5 °F 83% 29.44 in 0.8 mi West 31.1 mph 39.1 mph N/A Snow Light Snow
8:32 AM 18.9 °F 0.7 °F 14.4 °F 83% 29.45 in 0.5 mi West 26.5 mph 40.3 mph N/A Snow Light Snow
8:52 AM 17.4 °F -0.5 °F 13.1 °F 83% 29.46 in 0.8 mi West 24.2 mph 38.0 mph N/A Snow Light Snow
9:12 AM 16.5 °F -1.4 °F 12.6 °F 84% 29.47 in 1.2 mi WNW 23.0 mph 32.2 mph N/A Snow Light Snow
9:32 AM 16.2 °F -2.2 °F 11.5 °F 82% 29.49 in 1.2 mi West 24.2 mph 31.1 mph N/A Snow Light Snow
9:52 AM 14.9 °F -3.1 °F 10.4 °F 82% 29.50 in 0.8 mi WNW 21.9 mph 38.0 mph N/A Snow Light Snow
10:11 AM 14.5 °F -4.7 °F 9.9 °F 82% 29.51 in 1.0 mi WNW 25.3 mph 33.4 mph N/A Snow Light Snow
10:32 AM 14.5 °F -5.8 °F 10.0 °F 82% 29.52 in 1.2 mi West 28.8 mph 35.7 mph N/A Snow Light Snow
10:53 AM 12.9 °F -6.1 °F 8.1 °F 81% 29.53 in 1.0 mi WNW 23.0 mph 33.4 mph N/A Snow Light Snow
11:11 AM 11.8 °F -7.6 °F 7.0 °F 81% 29.54 in 1.2 mi WNW 23.0 mph 34.5 mph N/A   Haze
11:32 AM 12.0 °F -5.1 °F 6.4 °F 78% 29.54 in 3.0 mi WNW 17.3 mph 26.5 mph N/A   Haze
11:52 AM 12.2 °F -4.8 °F 6.1 °F 76% 29.55 in 3.0 mi WNW 17.3 mph 27.6 mph N/A   Haze
12:13 PM 12.2 °F -6.3 °F 6.4 °F 78% 29.57 in 2.0 mi West 20.7 mph 27.6 mph N/A   Haze
12:32 PM 12.2 °F -7.5 °F 5.9 °F 76% 29.58 in 2.0 mi West 24.2 mph 33.4 mph N/A   Haze
12:52 PM 12.2 °F -7.5 °F 5.9 °F 76% 29.58 in 2.5 mi West 24.2 mph 32.2 mph N/A   Haze
1:32 PM 11.3 °F -8.7 °F 5.0 °F 76% 29.60 in 2.0 mi WNW 24.2 mph 32.2 mph N/A   Haze
1:52 PM 10.9 °F -9.9 °F 5.2 °F 78% 29.61 in 2.0 mi West 26.5 mph 31.1 mph N/A   Haze
2:12 PM 10.4 °F -8.6 °F 3.9 °F 75% 29.62 in 2.0 mi WNW 20.7 mph 34.5 mph N/A   Haze
2:32 PM 9.9 °F -9.8 °F 3.6 °F 76% 29.63 in 2.5 mi WNW 21.9 mph 29.9 mph N/A   Haze
2:52 PM 9.5 °F -10.3 °F 3.2 °F 76% 29.64 in 3.0 mi WNW 21.9 mph 29.9 mph N/A   Haze
3:12 PM 9.1 °F -9.3 °F 3.0 °F 76% 29.65 in 5.0 mi WNW 18.4 mph 27.6 mph N/A   Haze
3:33 PM 9.3 °F -8.0 °F 2.7 °F 74% 29.66 in 7.0 mi WNW 16.1 mph 27.6 mph N/A   Clear
3:52 PM 9.3 °F -8.6 °F 2.5 °F 74% 29.66 in 7.0 mi WNW 17.3 mph 25.3 mph N/A   Clear
4:12 PM 8.8 °F -6.8 °F 1.9 °F 74% 29.68 in 10.0 mi WNW 12.7 mph 21.9 mph N/A   Clear
4:33 PM 8.6 °F -9.5 °F 1.4 °F 73% 29.69 in 10.0 mi WNW 17.3 mph 21.9 mph N/A   Clear
4:52 PM 8.6 °F -6.3 °F 1.4 °F 73% 29.69 in 10.0 mi WNW 11.5 mph 16.1 mph N/A   Clear
5:12 PM 8.1 °F -8.4 °F 0.7 °F 72% 29.70 in 10.0 mi WNW 13.8 mph 20.7 mph N/A   Clear
5:32 PM 6.8 °F -10.7 °F -0.2 °F 73% 29.71 in 10.0 mi WNW 15.0 mph 23.0 mph N/A   Clear
5:52 PM 6.1 °F -8.7 °F -0.9 °F 73% 29.71 in 10.0 mi West 10.4 mph - N/A   Clear
6:13 PM 4.6 °F -10.4 °F -1.5 °F 76% 29.72 in 10.0 mi WNW 10.4 mph - N/A   Clear
6:32 PM 4.1 °F -11.1 °F -2.2 °F 75% 29.73 in 10.0 mi West 10.4 mph - N/A   Clear
6:52 PM 3.6 °F -12.6 °F -2.4 °F 76% 29.74 in 10.0 mi West 11.5 mph - N/A   Clear
7:12 PM 2.8 °F -11.7 °F -3.1 °F 76% 29.73 in 10.0 mi WNW 9.2 mph - N/A   Clear
7:32 PM 2.3 °F -12.4 °F -3.5 °F 77% 29.74 in 10.0 mi WNW 9.2 mph - N/A   Clear
7:53 PM 1.4 °F -12.5 °F -4.0 °F 78% 29.74 in 10.0 mi WNW 8.1 mph - N/A   Clear
8:12 PM 1.0 °F -14.9 °F -4.2 °F 79% 29.74 in 10.0 mi West 10.4 mph - N/A   Clear
8:32 PM 0.5 °F -14.6 °F -4.9 °F 78% 29.74 in 10.0 mi WNW 9.2 mph - N/A   Clear
8:52 PM 0.1 °F -14.0 °F -5.1 °F 79% 29.75 in 10.0 mi WNW 8.1 mph - N/A   Clear
9:12 PM -0.4 °F -14.7 °F -5.3 °F 80% 29.74 in 10.0 mi WNW 8.1 mph - N/A   Clear
9:32 PM -0.4 °F -15.7 °F -5.3 °F 80% 29.75 in 10.0 mi West 9.2 mph - N/A   Clear
9:52 PM -0.2 °F -14.4 °F -5.3 °F 79% 29.75 in 10.0 mi West 8.1 mph - N/A   Clear
10:12 PM -0.0 °F -15.3 °F -5.3 °F 79% 29.75 in 10.0 mi WNW 9.2 mph - N/A   Clear
10:32 PM 0.3 °F -14.8 °F -5.1 °F 78% 29.74 in 10.0 mi WNW 9.2 mph - N/A   Clear
10:53 PM 0.3 °F -15.8 °F -4.9 °F 79% 29.74 in 10.0 mi NW 10.4 mph - N/A   Clear
11:12 PM 0.5 °F -13.6 °F -4.9 °F 78% 29.74 in 10.0 mi WNW 8.1 mph - N/A   Clear
11:32 PM 0.3 °F -13.8 °F -5.1 °F 78% 29.75 in 10.0 mi WNW 8.1 mph - N/A   Clear
11:53 PM -0.0 °F -15.3 °F -5.3 °F 79% 29.76 in 10.0 mi NW 9.2 mph - N/A   Clear